Location: Malvern Link
(52.1333°N, 2.3000°W)
Time: 14:42:27
(UTC+00:00)

Cosmos 1634 Rocket - Pass Details

Date: 04 December 2021
Orbit: 959 x 993 km, 82.9° (Epoch: 23 January)

Event Time Altitude Azimuth Distance (km) Brightness Sun altitude
Rises 02:14:15 0° 357° (N) 3,714 7.3 -50.5°
Reaches altitude 10° 02:19:47 10° 36° (NE) 2,750 6.8 -49.8°
Maximum altitude 02:20:52 10° 46° (NE) 2,716 6.8 -49.7°
Drops below altitude 10° 02:21:57 10° 56° (ENE) 2,744 6.8 -49.5°
Sets 02:27:25 0° 96° (E) 3,675 7.5 -48.8°
